This demonstration page uses our WeatherBlox Daily Observations layout. Learn more.

Left ArrowRight Arrow

39.01783, -85.05884

Hourly Observations for August 30, 2016

Temp ( °F °C ) Dew Point ( °F °C ) Humidity (%) Winds ( mph kmh ) Pressure ( in mb ) Visibility ( mi km ) Precip ( " mm )
12:52 am 00:52 Clear 77 25 71 21.7 82 82 E 6 9 30.14 1021 10 16 N/A
1:52 am 01:52 Clear 77 25 70 21.1 79 79 ENE 8 13 30.13 1020 10 16 N/A
2:52 am 02:52 Clear 76 24.4 70 21.1 82 82 NE 6 9 30.13 1020 10 16 N/A
3:52 am 03:52 Clear 75 23.9 70 21.1 84 84 NE 6 9 30.13 1020 10 16 N/A
4:52 am 04:52 Clear 74 23.3 70 21.1 88 88 ENE 7 11 30.13 1020 10 16 N/A
5:52 am 05:52 Clear 73 22.8 69 20.6 87 87 NNE 5 7 30.13 1020 9 14 N/A
6:52 am 06:52 Clear 73 22.8 69 20.6 87 87 NE 5 7 30.12 1020 7 11 N/A
7:52 am 07:52 Mostly Sunny 72 22.2 69 20.6 91 91 ENE 5 7 30.13 1020 7 11 N/A
8:52 am 08:52 Mostly Sunny 75 23.9 69 20.6 82 82 NE 5 7 30.14 1021 10 16 N/A
9:52 am 09:52 Sunny 78 25.6 69 20.6 74 74 ENE 3 6 30.14 1021 10 16 N/A
10:52 am 10:52 Sunny 81 27.2 69 20.6 67 67 E 5 7 30.13 1020 9 14 N/A
11:52 am 11:52 Sunny 83 28.3 68 20 61 61 E 6 9 30.13 1020 10 16 N/A
12:52 pm 12:52 Mostly Sunny 85 29.4 67 19.4 55 55 VRB 5 7 30.11 1020 10 16 N/A
1:52 pm 13:52 Mostly Sunny 86 30 65 18.3 49 49 ENE 7 11 30.09 1019 10 16 N/A
2:52 pm 14:52 Partly Cloudy 88 31.1 64 17.8 45 45 E 8 13 30.08 1019 10 16 N/A
3:52 pm 15:52 Partly Cloudy 89 31.7 63 17.2 42 42 SE 6 9 30.06 1018 10 16 N/A
4:52 pm 16:52 Mostly Sunny 88 31.1 62 16.7 42 42 E 6 9 30.04 1017 10 16 N/A
5:52 pm 17:52 Mostly Sunny 88 31.1 61 16.1 40 40 E 5 7 30.02 1017 10 16 N/A
6:52 pm 18:52 Partly Cloudy 85 29.4 67 19.4 55 55 S 5 7 30.01 1016 10 16 N/A
7:52 pm 19:52 Partly Cloudy 80 26.7 67 19.4 64 64 N N/A 29.99 1016 10 16 N/A
8:52 pm 20:52 Partly Cloudy 79 26.1 66 18.9 65 65 N N/A 30.01 1016 10 16 N/A
9:52 pm 21:52 Partly Cloudy 76 24.4 65 18.3 69 69 N N/A 30.04 1017 10 16 N/A
10:52 pm 22:52 Partly Cloudy 76 24.4 67 19.4 74 74 N 3 6 30.04 1017 10 16 N/A
11:52 pm 23:52 Mostly Cloudy 76 24.4 67 19.4 74 74 N N/A 30.04 1017 10 16 N/A

Powered by AerisWeather